weather.gov     
National Weather Service

Weather Roundup
NWS Homepage
This page is being discontinued on March 12, 2014.
The same data is available at this site. Please update your bookmarks.
Thank you, and we apologize for the inconvenience.
Please send an email to SR-SRH.Webmaster@noaa.gov with any concerns.


Current Version
Previous Version:    01  02  03  04  05  06  07  08  09  10  11  12  13  14  15  16  17  18  19  20  21  22  23  24  25  26  27  28  29  30  
   31  32  33  34  35  36  37  38  39  40  41  42  43  44  45  46  47  48  49  50  51  52  53  54  55  56  57  58  59  60  
[Printable]
914
ASUS44 KCRP 281410
HRRCRP

SOUTH TEXAS REGIONAL WEATHER ROUNDUP
NATIONAL WEATHER SERVICE CORPUS CHRISTI TX
800 AM CST WED JAN 28 2015


TXZ229>244-281500-
...CORPUS CHRISTI AREA OBSERVATIONS...

CITY           SKY/WX    TMP DP  RH WIND       PRES   REMARKS
CORPUS CHRISTI FOG       46  45  96 S6        30.17R VSB 1/4
NAS CORPUS CHR PTCLDY    50  50 100 CALM      30.17R
ROCKPORT         N/A     50  46  86 S3        30.17R
KINGSVILLE NAS FOG       49  49 100 S3        30.17R VSB 1/16
ALICE          CLEAR     44  40  85 CALM      30.16R
FALFURRIAS     CLOUDY    44  43  95 CALM      30.16R VSB<1/4
$$

...VICTORIA AREA OBSERVATIONS...

CITY           SKY/WX    TMP DP  RH WIND       PRES   REMARKS
VICTORIA       CLEAR     49  45  86 CALM      30.18R
BEEVILLE       FAIR      48  42  79 CALM      30.16R
PLEASANTON     CLEAR     42  39  89 CALM      30.17R
SAN ANTONIO    PTCLDY    45  38  76 NW6       30.16R
$$

...LAREDO AREA OBSERVATIONS...

CITY           SKY/WX    TMP DP  RH WIND       PRES   REMARKS
LAREDO         CLEAR     52  43  71 E7        30.16R
COTULLA        CLEAR     52  42  69 SE5       30.15R
DEL RIO        CLEAR     46  38  73 W5        30.13R
MCALLEN        CLEAR     52  50  93 SE5       30.17R
HEBBRONVILLE   CLEAR     51  38  59 SW3       30.16R
$$

...OTHER TEXAS OBSERVATIONS...

CITY           SKY/WX    TMP DP  RH WIND       PRES   REMARKS
BROWNSVILLE    FOG       55  54  96 SE3       30.18R VSB<1/4
HOUSTON        PTCLDY    47  46  97 SE3       30.18R
COL. STATION   CLEAR     49  42  77 CALM      30.16R
AUSTIN         PTCLDY    43  39  86 CALM      30.16R
WACO           CLEAR     41  38  89 CALM      30.14R
FORT WORTH     PTCLDY    50  41  71 S8        30.10R
WICHITA FALLS  CLEAR     47  38  71 SW12      30.05R
LUBBOCK        PTCLDY    39  35  86 W8        30.10S
EL PASO        PTCLDY    44  38  79 NE3       30.21R
$$

...MARINE OBSERVATIONS...

STATION/POSITION TIME  SKY/WX   TEMP    WIND        PRES    VSBY  WAVE   SWELL
                                AIR SEA DIR/SP/G                  HT/PER HT/PER
                 (UTC)          (F)     (DEG/KT/KT) (MB)    (MI)  (FT/S) (FT/S)
PORT ARANSAS     1400            60 59  150/  4/  4 1022.2R
BUOY 90 E PORT A 1400            69 68  230/  4/  6 1022.5R         1/ 3
BUOY 45 SE BAFFI 1400            66 67  200/ 12/ 14 1021.4R         1/ 4
BUOY 200 E PT IS 1400            70 72  280/  4/  4 1022.8R         2/ 5   2/ 5
BUOY 15 E GALVES 1400            57 56  110/  4/  4 1021.9R         1/ 4   2/ 4
$$




U.S. Dept. of Commerce
NOAA National Weather Service
1325 East West Highway
Silver Spring, MD 20910
E-mail: w-nws.webmaster@noaa.gov
Page last modified: May 16, 2007
NATIONAL WEATHER SERVICE: for Safety, for Work, for Fun - FOR LIFE